Lid_Strength_Index
8 8 8 9 9 10 9 8 9 9 10 9 8 8 7 6 5 6 5 5 4 3 3 3 2 2 2 2 1 1 1 1 2 1 1 1 1 0 0 0 0 -0 0 0
9 8 9 10 9 9 8 8 10 9 10 7 7 6 6 6 6 6 5 5 4 4 3 3 2 2 2 2 2 2 2 2 1 1 1 1 1 0 0 0 0 0 0 0
11 9 9 11 9 9 9 9 9 10 8 7 8 7 6 6 5 5 5 4 4 4 3 3 2 2 2 2 2 2 2 1 1 1 1 1 1 1 1 1 0 0 0 0
10 10 13 9 7 8 9 9 8 8 8 7 7 6 5 4 5 5 4 4 3 3 3 3 2 2 2 2 2 2 2 1 1 1 1 1 1 1 1 1 1 1 0 0
11 11 10 9 9 9 9 9 7 8 7 6 6 5 6 4 3 4 3 3 3 2 2 2 2 2 2 2 2 2 2 2 2 1 1 1 2 2 1 1 1 1 0 0
10 12 14 8 7 6 6 10 7 6 6 6 6 8 6 4 3 3 3 2 3 2 2 2 2 2 2 2 2 3 2 2 1 1 1 2 1 2 1 1 1 1 1 1
10 11 9 7 6 5 11 9 6 6 6 6 6 5 4 3 3 3 3 2 2 2 2 2 2 2 3 2 3 2 1 1 1 1 1 1 1 1 2 1 2 2 2 1
11 12 12 6 6 9 7 6 6 5 5 5 5 4 4 3 3 3 3 3 2 3 3 2 2 2 2 3 1 1 1 2 3 3 3 3 4 3 3 3 3 3 3 2
9 9 7 5 6 5 5 6 5 5 4 4 4 4 4 4 3 3 3 3 2 3 3 2 2 2 3 2 1 2 2 4 4 4 4 4 3 3 4 4 4 3 3 4
9 7 7 6 5 4 4 4 4 3 4 4 4 4 3 3 3 3 3 3 3 3 3 3 2 2 2 2 1 2 3 4 4 4 3 3 2 3 3 5 5 3 4 4
8 7 6 5 5 4 4 4 4 3 3 3 4 4 3 3 3 3 3 3 2 3 3 3 2 2 1 1 2 2 2 3 3 3 3 3 3 3 3 3 3 3 3 3
8 6 6 6 4 4 4 4 3 4 4 3 3 3 3 3 3 3 3 3 3 3 2 2 2 2 1 1 2 2 4 3 3 3 2 2 5 5 9 7 8 9 9 6
6 5 5 4 4 3 4 4 3 3 3 3 3 3 3 3 2 3 3 3 3 3 2 2 2 2 1 1 2 3 3 4 3 3 2 5 5 5 7 9 11 12 12 11
4 4 5 4 4 3 3 3 3 3 2 3 2 2 2 3 3 3 3 2 2 2 2 2 2 2 2 1 1 1 2 6 2 2 3 4 4 4 5 6 6 7 11 10
4 3 3 3 4 4 3 3 3 3 3 3 2 3 3 3 3 3 2 2 2 2 2 2 2 2 1 1 1 2 2 2 2 2 2 4 3 4 5 5 4 5 7 8
4 3 3 4 3 3 3 3 4 4 3 3 3 3 3 2 3 3 2 2 3 3 2 2 2 1 1 1 1 2 2 3 3 2 2 3 3 5 5 4 3 3 4 5
6 5 4 4 4 3 4 3 3 3 3 3 3 3 3 3 3 3 2 2 2 2 2 2 2 1 1 1 1 2 2 2 3 3 3 3 3 3 2 2 2 3 4 4
5 4 3 3 4 4 4 3 3 3 3 3 3 3 3 3 4 3 2 2 2 2 2 1 1 1 1 1 1 1 2 2 2 2 3 3 2 2 2 2 2 4 3 4
4 4 4 3 3 4 4 4 3 3 3 3 3 3 3 3 3 3 2 3 3 3 2 1 2 1 1 1 1 1 2 2 2 3 3 3 2 1 2 2 2 2 2 3
4 3 3 3 3 3 4 3 3 3 2 3 3 3 3 3 2 3 2 3 3 2 1 1 1 1 1 1 2 1 2 3 3 4 2 2 2 2 1 4 2 2 3 3
4 4 4 4 4 3 3 3 3 3 3 3 3 3 3 3 2 2 3 4 2 1 1 2 1 1 1 2 2 2 2 3 2 2 2 2 2 1 1 1 2 2 3 2
3 4 4 3 3 3 3 3 3 3 3 3 3 3 3 3 3 3 2 3 2 6 2 1 1 2 2 3 2 2 2 2 2 1 2 1 1 1 1 2 2 2 1 1
3 3 3 3 3 3 3 3 3 3 3 3 3 3 3 2 2 3 4 2 1 3 1 1 3 5 5 3 1 1 1 1 1 1 1 1 1 1 1 1 1 1 0 0
3 3 3 3 2 3 4 3 2 2 2 2 2 2 2 3 2 1 1 3 6 4 1 3 4 5 5 3 1 1 1 1 1 1 1 4 1 1 1 1 1 0 0 1
3 3 3 3 4 4 3 3 3 2 2 2 2 2 1 1 2 1 2 2 6 3 3 6 5 6 2 1 1 1 1 1 1 1 1 1 1 1 0 0 0 0 0 0
3 3 3 3 3 3 3 3 3 3 3 3 2 1 1 1 1 1 2 5 3 5 4 4 4 3 2 2 2 2 2 2 2 1 1 0 0 0 0 0 0 0 -0 -0
3 5 3 3 3 2 2 3 3 3 3 3 3 2 1 2 2 3 6 4 4 3 4 3 3 3 2 2 2 2 1 1 4 1 1 0 0 0 0 0 -0 -0 -0 -0